Preview of NWS' New Version of Forecast
This preview is not operational and should not be used for support decisions.
Latest weather observations around

WX6HNX-15 Boron (AU536)

Using English Units (Switch to International System of Units)
Date/ Time (PDT) Wind (mph) Vis. (mi) Weather Sky Cond. Temp (°F) Rel. Humidity Wind Chill (°F) Heat Index (°F) Pressure Precip. (in)
Air Dwpt 6 hour Altimeter (inHg) Sea level (inHg) 1 hr 3 hr 6 hr
Max Min
Jun 21 10:48 W 4   Clear   91 47     22%   88 29.95        
Jun 21 10:42 W 3   Clear   90 48     24%   87 29.95        
Jun 21 10:39 W 4   Clear   90 48     24%   87 29.95        
Jun 21 10:33 SW 4   Clear   89 49     25%   86 29.95        
Jun 21 10:27 WSW 5   Clear   89 49     25%   86 29.95        
Jun 21 10:24 W 7   Clear   89 49     25%   86 29.95        
Jun 21 10:18 WSW 6   Clear   89 50     26%   86 29.95        
Jun 21 10:12 W 4   Clear   88 49     26%   85 29.95        
Jun 21 10:09 W 6   Clear   88 49     26%   85 29.92        
Jun 21 10:03 SW 5   Clear   88 50     27%   85 29.93        
Jun 21 09:57 SW 3   Clear   87 49     27%   84 29.93        
Jun 21 09:54 WSW 2   Clear   87 49     27%   84 29.93        
Jun 21 09:48 WSW 4   Clear   86 49     28%   84 29.93        
Jun 21 09:42 WSW 8   Clear   86 49     28%   84 29.93        
Jun 21 09:39 WSW 3   Clear   86 49     28%   84 29.93        
Jun 21 09:33 SW 3   Clear   86 50     29%   84 29.93        
Jun 21 09:27 SW 2   Clear   85 50     30%   83 29.93        
Jun 21 09:24 SW 2   Clear   85 50     30%   83 29.93        
Jun 21 09:18 SSW 2   Clear   84 50     31%   82 29.93        
Jun 21 09:12 SSW 3   Clear   83 49     31%   81 29.93        
Jun 21 09:09 SSW 3   Clear   83 50     32%   81 29.93        
Jun 21 09:03 SW 3   Clear   83 50     32%   81 29.94        
Jun 21 08:57 SW 2   Clear   82 50     33%   81 29.94        
Jun 21 08:54 WSW 2   Clear   82 50     33%   81 29.94        
Jun 21 08:47 SW 2   Clear   81 50     34%   80 29.94        
Jun 21 08:44 W 1   Clear   81 50     34%   80 29.94        
Jun 21 08:38 WSW 5   Clear   81 50     34%   80 29.94        
Jun 21 08:29 WSW 4   Clear   81 51     35%   80 29.94        
Jun 21 08:23 W 3   Clear   80 50     35%   79 29.94        
Jun 21 08:17 SW 4   Clear   81 50     34%   80 29.94        
Jun 21 08:14 WSW 2   Clear   81 50     34%   80 29.94        
Jun 21 08:08 W 6   Clear   82 51     34%   81 29.95        
Jun 21 08:02 Calm   Clear   83 51     33%   81 29.94        
Jun 21 07:59 Calm   Clear   83 51     33%   81 29.95        
Jun 21 07:53 Calm   Clear   83 52     34%   82 29.95        
Jun 21 07:47 NNW 1   Clear   82 52     35%   81 29.94        
Jun 21 07:44 Calm   Clear   81 51     35%   80 29.94        
Jun 21 07:38 Calm   Clear   80 51     37%   79 29.94        
Jun 21 07:32 Calm   Clear   78 50     38%   77 29.94        
Jun 21 07:29 Calm   Clear   78 51     39%   77 29.94        
Jun 21 07:23 Calm   Clear   76 50     40%   75 29.94        
Jun 21 07:19 Calm   Clear   76 51     41%   75 29.93        
Jun 21 07:13 Calm   Clear   75 51     43%   74 29.93        
Jun 21 07:07 Calm   Clear   74 51     44%   73 29.93        
Jun 21 07:00 Calm   Clear   73 50     45%   72 29.93        
Jun 21 06:57 Calm   Clear   72 50     46%   71 29.93        
Jun 21 06:54 Calm   Clear   72 50     46%   71 29.93        
Jun 21 06:48 Calm   Clear   71 50     47%   70 29.93        
Jun 21 06:42 Calm   Clear   70 49     48%     29.93        
Jun 21 06:35 Calm   Clear   69 50     50%     29.93        
Jun 21 06:32 Calm   Clear   68 49     51%     29.93        
Jun 21 06:29 Calm   Clear   67 49     52%     29.93        
Jun 21 06:23 Calm   Clear   66 48     53%     29.93        
Jun 21 06:17 Calm   Clear   65 48     54%     29.93        
Jun 21 06:14 Calm   Clear   65 48     54%     29.93        
Jun 21 06:08 Calm   Clear   64 47     54%     29.93        
Jun 21 06:02 Calm   Clear   64 47     54%     29.93        
Jun 21 05:59 Calm   Clear   64 47     55%     29.93        
Jun 21 05:53 NW 1   Clear   64 46     52%     29.93        
Jun 21 05:47 Calm   Clear   65 46     51%     29.93        
Jun 21 05:44 Calm   Clear   65 46     51%     29.93        
Jun 21 05:38 Calm   Clear   65 47     52%     29.93        
Jun 21 05:32 Calm   Clear   66 47     51%     29.93        
Jun 21 05:29 Calm   Clear   66 47     51%     29.93        
Jun 21 05:25 Calm   Clear   66 47     51%     29.93        
Jun 21 05:19 ENE 1   Clear   67 48     50%     29.93        
Jun 21 05:13 Calm   Clear   67 48     50%     29.92        
Jun 21 05:10 Calm   Clear   68 49     50%     29.92        
Jun 21 05:04 Calm   Clear   68 48     49%     29.92        
Jun 21 04:58 Calm   Clear   69 49     49%     29.92        
Jun 21 04:55 Calm   Clear   69 50     50%     29.92        
Jun 21 04:49 Calm   Clear   69 49     49%     29.92        
Jun 21 04:43 Calm   Clear   69 49     49%     29.92        
Jun 21 04:40 Calm   Clear   69 48     48%     29.92        
Jun 21 04:34 Calm   Clear   69 49     49%     29.92        
Jun 21 04:28 Calm   Clear   69 48     47%     29.92        
Jun 21 04:25 Calm   Clear   70 49     47%     29.92        
Jun 21 04:15 Calm   Clear   70 48     46%     29.92        
Jun 21 04:12 Calm   Clear   71 49     46%   70 29.92        
Jun 21 04:09 Calm   Clear   71 49     46%   70 29.92        
Jun 21 04:03 Calm   Clear   72 49     45%   71 29.92        
Jun 21 03:57 Calm   Clear   72 49     44%   71 29.92        
Jun 21 03:54 Calm   Clear   73 50     44%   72 29.92        
Jun 21 03:48 SSE 1   Clear   73 49     43%   72 29.91        
Jun 21 03:42 Calm   Clear   74 49     42%   73 29.91        
Jun 21 03:39 Calm   Clear   74 49     42%   73 29.91        
Jun 21 03:30 Calm   Clear   75 50     41%   74 29.91        
Jun 21 03:27 SSW 1   Clear   75 50     41%   74 29.91        
Jun 21 03:24 Calm   Clear   75 50     41%   74 29.91        
Jun 21 03:18 SW 2   Clear   75 50     41%   74 29.91        
Jun 21 03:12 SW 2   Clear   75 50     41%   74 29.91        
Jun 21 03:09 WSW 3   Clear   75 50     41%   74 29.91        
Jun 21 03:03 WSW 2   Clear   76 51     41%   75 29.91        
Jun 21 02:57 WSW 2   Clear   76 51     41%   75 29.91        
Jun 21 02:54 SW 2   Clear   76 50     40%   75 29.91        
Jun 21 02:48 WSW 5   Clear   76 50     40%   75 29.91        
Jun 21 02:42 WSW 4   Clear   76 50     40%   75 29.91        
Jun 21 02:39 WSW 4   Clear   76 49     39%   75 29.91        
Jun 21 02:34 WSW 6   Clear   76 49     39%   75 29.91        
Jun 21 02:28 WSW 5   Clear   76 49     39%   75 29.91        
Jun 21 02:22 WSW 5   Clear   77 50     39%   76 29.91        
Jun 21 02:19 WSW 6   Clear   77 50     39%   76 29.91        
Jun 21 02:13 WSW 7   Clear   77 50     39%   76 29.91        
Jun 21 02:10 WSW 6   Clear   77 50     39%   76 29.91        
Jun 21 02:04 WSW 5   Clear   77 49     38%   76 29.91        
Jun 21 01:58 WSW 6   Clear   77 49     38%   76 29.91        
Jun 21 01:52 WSW 7   Clear   77 49     38%   76 29.91        
Jun 21 01:48 WSW 8   Clear   77 49     38%   76 29.91        
Jun 21 01:45 WSW 7   Clear   77 49     38%   76 29.91        
Jun 21 01:39 WSW 8   Clear   78 50     38%   77 29.91        
Jun 21 01:33 WSW 9   Clear   78 50     37%   77 29.91        
Jun 21 01:30 WSW 7   Clear   78 50     37%   77 29.91        
Jun 21 01:24 WSW 8   Clear   78 50     38%   77 29.91        
Jun 21 01:18 WSW 9   Clear   78 50     37%   77 29.91        
Jun 21 01:15 WSW 8   Clear   78 50     37%   77 29.91        
Jun 21 01:09 WSW 8   Clear   78 50     37%   77 29.91        
Jun 21 01:00 WSW 7   Clear   78 50     37%   77 29.91        
Jun 21 00:57 WSW 6   Clear   78 50     37%   77 29.91        
Jun 21 00:54 WSW 8   Clear   78 50     37%   77 29.91        
Jun 21 00:48 W 9   Clear   78 50     37%   77 29.91        
Jun 21 00:42 W 9   Clear   78 50     38%   77 29.91        
Jun 21 00:39 W 6   Clear   79 51     38%   78 29.91        
Jun 21 00:33 WSW 7   Clear   78 50     37%   77 29.9        
Jun 21 00:27 WSW 8   Clear   79 50     37%   78 29.9        
Jun 21 00:24 WSW 7   Clear   79 50     37%   78 29.9        
Jun 21 00:18 W 6   Clear   79 50     37%   78 29.9        
Jun 21 00:12 WSW 8   Clear   79 50     37%   78 29.91        
Jun 21 00:09 WSW 9   Clear   79 50     37%   78 29.91        
Jun 21 00:03 W 7   Clear   79 50     37%   78 29.91        
Jun 20 23:58 WSW 8   Clear   79 50     37%   78 29.91        
Jun 20 23:52 WSW 10   Clear   79 50     37%   78 29.91        
Jun 20 23:49 WSW 10   Clear   79 50     37%   78 29.91        
Jun 20 23:43 WSW 10   Clear   79 50     37%   78 29.91        
Jun 20 23:37 WSW 9   Clear   79 50     37%   78 29.91        
Jun 20 23:34 WSW 11   Clear   79 50     37%   78 29.91        
Jun 20 23:28 WSW 9   Clear   79 50     37%   78 29.91        
Jun 20 23:19 WSW 9   Clear   80 51     36%   79 29.91        
Jun 20 23:13 WSW 9   Clear   80 51     36%   79 29.91        
Jun 20 23:07 WSW 10   Clear   80 51     36%   79 29.91        
Jun 20 23:01 WSW 10   Clear   80 50     35%   79 29.91        
Jun 20 22:58 WSW 10   Clear   81 51     35%   80 29.91        
Jun 20 22:54 WSW 7   Clear   81 51     35%   80 29.91        
Jun 20 22:48 WSW 8   Clear   81 50     34%   80 29.91        
Jun 20 22:45 WSW 6   Clear   81 50     34%   80 29.91        
Jun 20 22:39 W 6   Clear   81 49     33%   80 29.91        
Jun 20 22:31 W 8   Clear   82 51     34%   81 29.92        
Jun 20 22:28 W 8   Clear   82 51     34%   81 29.92        
Jun 20 22:22 W 9   Clear   82 51     34%   81 29.92        
Jun 20 22:19 WNW 9   Clear   82 51     34%   81 29.92        
Jun 20 22:13 WNW 10   Clear   83 52     34%   82 29.92        
Jun 20 22:07 WNW 10   Clear   83 51     33%   81 29.91        
Jun 20 22:04 WNW 10   Clear   83 51     33%   81 29.91        
Jun 20 21:58 WNW 10   Clear   83 51     33%   81 29.91        
Jun 20 21:52 W 9   Clear   84 51     32%   82 29.91        
Jun 20 21:49 W 8   Clear   84 51     32%   82 29.91        
Jun 20 21:43 W 10   Clear   85 51     31%   83 29.91        
Jun 20 21:37 W 8   Clear   85 50     30%   83 29.91        
Jun 20 21:34 W 9   Clear   86 51     30%   84 29.91        
Jun 20 21:28 W 8   Clear   86 51     30%   84 29.91        
Jun 20 21:20 W 10   Clear   86 50     29%   84 29.91        
Jun 20 21:17 W 9   Clear   86 50     29%   84 29.91        
Jun 20 21:14 W 9   Clear   87 51     29%   85 29.91        
Jun 20 21:08 W 10   Clear   87 50     28%   84 29.91        
Jun 20 21:02 W 9   Clear   88 50     27%   85 29.9        
Jun 20 20:59 W 9   Clear   88 49     26%   85 29.9        
Jun 20 20:53 W 11   Clear   89 50     26%   86 29.9        
Jun 20 20:47 W 9   Clear   89 49     25%   86 29.9        
Jun 20 20:44 W 10   Clear   90 49     25%   87 29.9        
Jun 20 20:38 W 10   Clear   90 49     25%   87 29.9        
Jun 20 20:32 W 11   Clear   91 50     25%   88 29.89        
Jun 20 20:29 W 10   Clear   91 50     25%   88 29.89        
Jun 20 20:23 W 8   Clear   92 50     24%   89 29.89        
Jun 20 20:17 W 7   Clear   92 45     20%   88 29.89        
Jun 20 20:14 W 8   Clear   93 38     15%   89 29.89        
Jun 20 20:04 WSW 12   Clear   94 34     12%   89 29.88        
Jun 20 19:58 WSW 9   Clear   94 31     11%   89 29.88        
Jun 20 19:49 WSW 13   Clear   95 32     11%   90 29.88        
Jun 20 19:43 WSW 15   Clear   95 30     10%   89 29.88        
Jun 20 19:34 WSW 13   Clear   96 31     10%   90 29.88        
Jun 20 19:28 WSW 12   Clear   96 31     10%   90 29.88        
Jun 20 19:19 WSW 10   Clear   97 31     10%   91 29.88        
Jun 20 19:13 W 11   Clear   98 35     11%   93 29.87        
Jun 20 19:04 W 14   Clear   98 35     11%   93 29.87        
Jun 20 18:57 WSW 11   Clear   99 35     11%   94 29.87        
Jun 20 18:54 W 13   Clear   99 35     11%   94 29.87        
Jun 20 18:48 W 13   Clear   100 36     11%   94 29.86        
Jun 20 18:39 W 12   Clear   101 37     11%   95 29.86        
Jun 20 18:33 W 11   Clear   101 37     11%   95 29.86        
Jun 20 18:27 WSW 11   Clear   101 37     11%   95 29.86        
Jun 20 18:24 WSW 15   Clear   102 38     11%   96 29.86        
Jun 20 18:18 W 12   Clear   102 38     11%   96 29.85        
Jun 20 18:12 W 12   Clear   103 38     11%   98 29.85        
Jun 20 18:09 W 10   Clear   103 38     11%   98 29.85        
Jun 20 18:03 W 11   Clear   104 39     11%   99 29.85        
Jun 20 17:57 W 11   Clear   104 37     10%   98 29.85        
Jun 20 17:54 W 11   Clear   104 37     10%   98 29.85        
Jun 20 17:48 W 7   Clear   104 31     8%   97 29.85        
Jun 20 17:44 W 6   Clear   104 31     8%   97 29.85        
Jun 20 17:38 SW 4   Clear   104 31     8%   97 29.85        
Jun 20 17:32 W 7   Clear   105 32     8%   98 29.85        
Jun 20 17:29 WSW 8   Clear   105 32     8%   98 29.85        
Jun 20 17:23 WSW 8   Clear   104 34     9%   98 29.86        
Jun 20 17:14 WSW 8   Clear   104 34     9%   98 29.86        
Jun 20 17:09 WSW 8   Clear   105 35     9%   99 29.86        
Jun 20 17:02 W 7   Clear   105 35     9%   99 29.86        
Jun 20 16:56 W 1   Clear   105 35     9%   99 29.86        
Jun 20 16:53 W 6   Clear   105 35     9%   99 29.86        
Jun 20 16:41 W 6   Clear   106 35     9%   100 29.87        
Jun 20 16:35 WNW 5   Clear   106 35     9%   100 29.87        
Jun 20 16:32 WNW 2   Clear   106 35     9%   100 29.87        
Jun 20 16:29 NW 7   Clear   105 35     9%   99 29.87        
Jun 20 16:23 WNW 3   Clear   104 34     9%   98 29.87        
Jun 20 16:17 WSW 4   Clear   105 35     9%   99 29.88        
Jun 20 16:14 WSW 4   Clear   105 35     9%   99 29.88        
Jun 20 16:08 W 8   Clear   106 35     9%   100 29.88        
Jun 20 16:02 WNW 9   Clear   106 33     8%   99 29.88        
Jun 20 15:56 WNW 10   Clear   106 33     8%   99 29.88        
Jun 20 15:53 WNW 11   Clear   106 35     9%   100 29.88        
Jun 20 15:47 NNW 5   Clear   106 35     9%   100 29.88        
Jun 20 15:44 NNW 6   Clear   106 35     9%   100 29.88        
Jun 20 15:38 WNW 1   Clear   106 35     9%   100 29.88        
Jun 20 15:32 NW 2   Clear   106 35     9%   100 29.89        
Jun 20 15:29 NW 3   Clear   106 35     9%   100 29.89        
Jun 20 15:23 WNW 6   Clear   105 35     9%   99 29.89        
Jun 20 15:17 WNW 6   Clear   104 34     9%   98 29.89        
Jun 20 15:14 WSW 1   Clear   103 36     10%   97 29.89        
Jun 20 15:08 WSW 4   Clear   104 34     9%   98 29.9        
Jun 20 15:02 WSW 4   Clear   105 35     9%   99 29.9        
Jun 20 14:59 SW 5   Clear   106 35     9%   100 29.9        
Jun 20 14:53 ESE 1   Clear   104 37     10%   98 29.9        
Jun 20 14:47 Calm   Clear   103 36     10%   97 29.9        
Jun 20 14:44 W 1   Clear   103 36     10%   97 29.9        
Jun 20 14:38 SSW 1   Clear   103 36     10%   97 29.91        
Jun 20 14:32 Calm   Clear   104 37     10%   98 29.91        
Jun 20 14:29 NW 2   Clear   103 36     10%   97 29.91        
Jun 20 14:23 W 6   Clear   103 36     10%   97 29.91        
Jun 20 14:17 WNW 4   Clear   102 35     10%   96 29.91        
Jun 20 14:14 WSW 5   Clear   102 35     10%   96 29.91        
Jun 20 14:08 W 3   Clear   102 35     10%   96 29.91        
Jun 20 14:02 WNW 4   Clear   103 36     10%   97 29.91        
Jun 20 13:59 W 3   Clear   103 36     10%   97 29.92        
Jun 20 13:53 SSW 6   Clear   104 34     9%   98 29.92        
Jun 20 13:47 SSW 4   Clear   105 37     10%   99 29.92        
Jun 20 13:44 S 2   Clear   105 37     10%   99 29.92        
Jun 20 13:38 NNE 2   Clear   104 37     10%   98 29.93        
Jun 20 13:32 SSW 1   Clear   104 37     10%   98 29.93        
Jun 20 13:29 S 2   Clear   104 37     10%   98 29.93        
Jun 20 13:23 ESE 2   Clear   104 37     10%   98 29.93        
Jun 20 13:16 NNE 3   Clear   103 36     10%   97 29.93        
Jun 20 13:12 E 1   Clear   102 38     11%   96 29.93        
Jun 20 13:09 ESE 1   Clear   102 35     10%   96 29.93        
Jun 20 13:03 SE 3   Clear   102 35     10%   96 29.93        
Jun 20 12:57 SE 6   Clear   102 35     10%   96 29.94        
Jun 20 12:54 ESE 1   Clear   102 35     10%   96 29.94        
Jun 20 12:43 SSE 5   Clear   101 37     11%   95 29.94        
Jun 20 12:34 E 3   Clear   101 39     12%   96 29.95        
Jun 20 12:28 NNE 3   Clear   100 40     13%   95 29.95        
Jun 20 12:22 ENE 4   Clear   98 41     14%   93 29.95        
Jun 20 12:19 NNE 1   Clear   97 42     15%   93 29.95        
Jun 20 12:13 SW 3   Clear   98 42     15%   94 29.95        
Jun 20 12:07 E 1   Clear   98 42     15%   94 29.96        
Jun 20 12:04 ENE 1   Clear   98 44     16%   94 29.96        
Jun 20 11:58 NNW 1   Clear   98 42     15%   94 29.96        
Jun 20 11:52 NNW 3   Clear   98 46     17%   94 29.96        
Jun 20 11:49 N 2   Clear   97 43     16%   93 29.96        
Jun 20 11:43 NW 4   Clear   97 46     18%   93 29.96        
Jun 20 11:36 NNE 4   Clear   95 46     19%   91 29.96        
Jun 20 11:33 Calm   Clear   94 47     20%   90 29.96        
Jun 20 11:24 WNW 2   Clear   93 46     20%   89 29.97        
Jun 20 11:18 W 4   Clear   94 47     20%   90 29.97        
Jun 20 11:12 NNW 1   Clear   93 47     21%   89 29.98        
Jun 20 11:09 Calm   Clear   93 47     21%   89 29.98        
Jun 20 11:03 WNW 5   Clear   92 46     21%   88 29.98        
Jun 20 10:57 NW 1   Clear   92 48     22%   89 29.98        
Jun 20 10:54 NW 3   Clear   91 48     23%   88 29.98        
Jun 20 10:48 NW 5   Clear   91 48     23%   88 29.98        
Jun 20 10:42 NW 4   Clear   90 48     24%   87 29.98        
Jun 20 10:39 NNW 3   Clear   89 47     24%   86 29.98        
Jun 20 10:33 NW 3   Clear   89 47     24%   86 29.98        
Jun 20 10:27 WNW 1   Clear   88 48     25%   85 29.98        
Jun 20 10:24 NW 3   Clear   87 48     26%   84 29.98        
Jun 20 10:18 WNW 5   Clear   86 48     27%   83 29.98        
Jun 20 10:11 W 2   Clear   86 48     27%   83 29.98        
Jun 20 10:08 WNW 1   Clear   85 47     27%   83 29.99        
Jun 20 10:02 W 4   Clear   85 48     28%   83 29.99        
Jun 20 09:59 WNW 2   Clear   84 47     28%   82 29.99        
Jun 20 09:53 WNW 5   Clear   84 47     28%   82 29.99        
Jun 20 09:47 W 1   Clear   83 47     29%   81 29.99        
Jun 20 09:38 WSW 1   Clear   83 48     30%   81 29.99        
Jun 20 09:32 W 5   Clear   83 47     29%   81 29.99        
Jun 20 09:29 WNW 2   Clear   83 48     30%   81 29.99        
Jun 20 09:23 WNW 3   Clear   82 48     31%   81 29.99        
Jun 20 09:17 W 2   Clear   81 47     31%   80 29.99        
Jun 20 09:14 W 4   Clear   81 48     32%   80 29.99        
Jun 20 09:08 W 3   Clear   80 47     32%   79 30        
Jun 20 09:02 WNW 4   Clear   80 47     32%   79 29.99        
Jun 20 08:59 W 3   Clear   81 48     32%   80 29.99        
Jun 20 08:53 W 3   Clear   80 48     33%   79 29.99        
Jun 20 08:47 WNW 2   Clear   79 48     34%   78 29.99        
Jun 20 08:41 W 3   Clear   78 47     34%   77 29.99        
Jun 20 08:38 WNW 3   Clear   78 48     35%   77 29.99        
Jun 20 08:32 W 1   Clear   78 48     35%   77 29.99        
Jun 20 08:26 W 3   Clear   78 48     35%   77 29.99        
Jun 20 08:23 WNW 3   Clear   78 48     35%   77 29.99        
Jun 20 08:17 WNW 2   Clear   78 48     35%   77 29.99        
Jun 20 08:11 SW 1   Clear   79 48     34%   78 29.99        
Jun 20 08:08 Calm   Clear   79 48     34%   78 29.98        
Jun 20 08:00 Calm   Clear   79 48     34%   78 29.98        
Jun 20 07:54 Calm   Clear   78 48     35%   77 29.98        
Jun 20 07:48 Calm   Clear   77 48     36%   76 29.98        
Jun 20 07:45 Calm   Clear   77 49     37%   76 29.98        
Jun 20 07:39 Calm   Clear   75 48     39%   74 29.98        
Jun 20 07:27 E 1   Clear   73 48     41%   72 29.95        
Jun 20 07:24 E 1   Clear   72 48     42%   71 29.96        
Jun 20 07:18 Calm   Clear   71 48     44%   70 29.96        
Jun 20 07:15 Calm   Clear   70 47     44%     29.96        
Jun 20 07:09 E 1   Clear   69 47     46%     29.96        
Jun 20 07:03 E 2   Clear   68 47     47%     29.95        
Jun 20 06:56 E 2   Clear   67 47     48%     29.95        
Jun 20 06:53 E 2   Clear   66 46     49%     29.95        
Jun 20 06:47 E 2   Clear   66 47     50%     29.95        
Jun 20 06:41 E 2   Clear   65 46     51%     29.96        
Jun 20 06:38 E 3   Clear   65 46     51%     29.96        
Jun 20 06:32 Calm   Clear   64 46     52%     29.96        
Jun 20 06:29 Calm   Clear   64 46     52%     29.95        
Jun 20 06:23 E 1   Clear   63 46     54%     29.95        
Jun 20 06:17 E 1   Clear   62 46     55%     29.95        
Jun 20 06:14 E 1   Clear   62 46     56%     29.95        
Jun 20 06:08 E 2   Clear   61 45     56%     29.95        
Jun 20 06:02 E 1   Clear   61 45     56%     29.95        
Jun 20 05:59 E 2   Clear   61 45     56%     29.95        
Jun 20 05:53 E 1   Clear   61 45     55%     29.95        
Jun 20 05:47 E 1   Clear   61 45     55%     29.94        
Jun 20 05:44 E 1   Clear   61 45     55%     29.94        
Jun 20 05:35 ENE 2   Clear   62 46     55%     29.94        
Jun 20 05:32 ENE 2   Clear   62 45     54%     29.94        
Jun 20 05:27 ENE 2   Clear   62 45     54%     29.94        
Jun 20 05:24 ENE 2   Clear   62 45     54%     29.94        
Jun 20 05:18 Calm   Clear   63 46     53%     29.94        
Jun 20 05:07 ENE 2   Clear   64 47     53%     29.93        
Jun 20 05:01 ENE 2   Clear   64 46     52%     29.93        
Jun 20 04:58 ENE 2   Clear   64 46     52%     29.93        
Jun 20 04:55 ENE 2   Clear   64 46     52%     29.93        
Jun 20 04:48 NNE 1   Clear   65 46     51%     29.93        
Jun 20 04:45 NNE 1   Clear   65 47     52%     29.93        
Jun 20 04:39 Calm   Clear   66 47     51%     29.94        
Jun 20 04:33 Calm   Clear   66 47     50%     29.93        
Jun 20 04:30 Calm   Clear   66 47     50%     29.93        
Jun 20 04:24 Calm   Clear   67 47     49%     29.93        
Jun 20 04:18 Calm   Clear   68 48     48%     29.93        
Jun 20 04:15 Calm   Clear   68 47     47%     29.93        
Jun 20 04:09 WNW 2   Clear   69 47     46%     29.93        
Jun 20 04:03 Calm   Clear   70 48     45%     29.93        
Jun 20 04:00 Calm   Clear   70 48     45%     29.93        
Jun 20 03:54 WSW 2   Clear   70 48     45%     29.93        
Jun 20 03:45 WSW 3   Clear   70 48     45%     29.93        
Jun 20 03:39 WSW 3   Clear   71 49     45%   70 29.93        
Jun 20 03:33 WSW 4   Clear   71 49     45%   70 29.93        
Jun 20 03:27 WSW 5   Clear   71 49     45%   70 29.93        
Jun 20 03:24 WSW 5   Clear   71 49     45%   70 29.93        
Jun 20 03:18 WSW 5   Clear   71 48     44%   70 29.93        
Jun 20 03:12 WSW 6   Clear   71 48     44%   70 29.93        
Jun 20 03:09 WSW 7   Clear   71 48     44%   70 29.93        
Jun 20 03:03 WSW 6   Clear   72 49     44%   71 29.93        
Jun 20 02:57 WSW 7   Clear   72 48     43%   71 29.93        
Jun 20 02:54 WSW 7   Clear   72 48     43%   71 29.93        
Jun 20 02:48 WSW 6   Clear   72 48     43%   71 29.93        
Jun 20 02:42 W 6   Clear   72 48     43%   71 29.93        
Jun 20 02:39 WSW 5   Clear   72 48     43%   71 29.93        
Jun 20 02:33 WSW 5   Clear   72 48     42%   71 29.94        
Jun 20 02:27 WSW 6   Clear   72 48     42%   71 29.93        
Jun 20 02:24 WSW 7   Clear   72 48     42%   71 29.93        
Jun 20 02:18 WSW 7   Clear   73 49     42%   72 29.94        
Jun 20 02:09 WSW 7   Clear   73 49     42%   72 29.93        
Jun 20 02:03 WSW 6   Clear   73 49     42%   72 29.93        
Jun 20 02:00 WSW 7   Clear   73 49     42%   72 29.94        
Jun 20 01:52 WSW 6   Clear   73 49     42%   72 29.93        
Jun 20 01:50 WSW 7   Clear   73 49     42%   72 29.93        
Jun 20 01:43 WSW 6   Clear   73 49     42%   72 29.93        
Jun 20 01:37 WSW 7   Clear   73 49     42%   72 29.93        
Jun 20 01:34 WSW 7   Clear   73 49     42%   72 29.93        
Jun 20 01:28 WSW 9   Clear   73 48     41%   72 29.94        
Jun 20 01:20 WSW 9   Clear   74 49     41%   73 29.94        
Jun 20 01:13 WSW 9   Clear   74 49     41%   73 29.94        
Jun 20 01:07 WSW 8   Clear   74 48     40%   73 29.94        
Jun 20 01:05 WSW 8   Clear   74 48     40%   73 29.94        
Jun 20 00:58 SW 9   Clear   74 48     40%   73 29.94        
Jun 20 00:52 WSW 8   Clear   74 48     40%   73 29.94        
Jun 20 00:50 SW 9   Clear   74 48     40%   73 29.94        
Jun 20 00:41 SW 7   Clear   74 48     40%   73 29.94        
Jun 20 00:38 SW 9   Clear   74 48     40%   73 29.94        
Jun 20 00:32 WSW 7   Clear   74 48     40%   73 29.94        
Jun 20 00:29 SW 8   Clear   75 49     40%   74 29.94        
Jun 20 00:23 SW 9   Clear   75 49     40%   74 29.94        
Jun 20 00:17 SW 6   Clear   75 49     40%   74 29.94        
Jun 20 00:14 SW 5   Clear   75 49     40%   74 29.94        
Jun 20 00:08 SW 7   Clear   75 49     40%   74 29.94        
Jun 20 00:02 SW 9   Clear   75 49     40%   74 29.94        
Jun 19 23:59 SW 10   Clear   75 49     40%   74 29.94        
Jun 19 23:50 SW 10   Clear   75 48     39%   74 29.94        
Jun 19 23:47 SW 9   Clear   75 48     39%   74 29.94        
Jun 19 23:41 SW 7   Clear   75 48     39%   74 29.94        
Jun 19 23:38 SW 10   Clear   75 48     39%   74 29.94        
Jun 19 23:32 SW 9   Clear   76 49     39%   75 29.94        
Jun 19 23:29 SW 10   Clear   76 49     39%   75 29.94        
Jun 19 23:23 SW 9   Clear   76 49     39%   75 29.94        
Jun 19 23:17 SW 11   Clear   76 49     39%   75 29.94        
Jun 19 23:14 SW 9   Clear   76 49     39%   75 29.95        
Jun 19 23:08 SW 11   Clear   76 49     38%   75 29.94        
Jun 19 23:02 SW 10   Clear   76 49     38%   75 29.94        
Jun 19 22:59 SW 11   Clear   77 49     38%   76 29.94        
Jun 19 22:53 WSW 7   Clear   77 49     37%   76 29.94        
Jun 19 22:47 SW 8   Clear   77 49     37%   76 29.94        
Jun 19 22:44 SW 9   Clear   78 49     36%   77 29.95        
Jun 19 22:38 SW 9   Clear   78 49     36%   77 29.94        
Jun 19 22:32 WSW 6   Clear   78 49     36%   77 29.95        
Jun 19 22:28 W 7   Clear   78 49     36%   77 29.95        
Jun 19 22:25 W 8   Clear   79 49     35%   78 29.94        
Jun 19 22:19 W 7   Clear   79 49     35%   78 29.94        
Jun 19 22:13 WSW 6   Clear   79 49     35%   78 29.94        
Jun 19 22:10 WSW 6   Clear   79 49     35%   78 29.94        
Jun 19 22:04 WSW 6   Clear   79 48     34%   78 29.94        
Jun 19 21:58 WSW 5   Clear   79 48     34%   78 29.94        
Jun 19 21:55 WSW 7   Clear   80 48     33%   79 29.94        
Jun 19 21:49 WSW 6   Clear   80 48     33%   79 29.93        
Jun 19 21:38 WSW 4   Clear   81 48     32%   80 29.93        
Jun 19 21:34 W 5   Clear   81 48     32%   80 29.93        
Jun 19 21:28 WSW 3   Clear   81 48     32%   80 29.93        
Jun 19 21:22 WSW 3   Clear   82 48     31%   81 29.93        
Jun 19 21:19 WSW 3   Clear   82 48     31%   81 29.93        
Jun 19 21:13 W 4   Clear   83 48     30%   81 29.92        
Jun 19 21:07 W 4   Clear   83 48     30%   81 29.92        
Jun 19 21:04 W 7   Clear   83 48     30%   81 29.92        
Jun 19 20:58 W 7   Clear   84 48     29%   82 29.92        
Jun 19 20:52 W 6   Clear   84 48     29%   82 29.92        
Jun 19 20:49 W 9   Clear   84 48     29%   82 29.91        
Jun 19 20:44 W 7   Clear   85 48     28%   83 29.92        
Jun 19 20:37 W 9   Clear   86 48     27%   83 29.91        
Jun 19 20:33 W 11   Clear   86 48     27%   83 29.91        
Jun 19 20:27 W 10   Clear   87 48     26%   84 29.91        
Jun 19 20:24 W 9   Clear   88 48     25%   85 29.91        
Jun 19 20:18 W 7   Clear   88 47     24%   85 29.91        
Jun 19 20:12 W 11   Clear   89 46     23%   86 29.9        
Jun 19 20:09 W 12   Clear   90 46     22%   87 29.9        
Jun 19 20:03 W 8   Clear   91 44     20%   87 29.9        
Jun 19 19:57 W 6   Clear   92 38     15%   88 29.9        
Jun 19 19:54 SW 6   Clear   92 32     12%   87 29.9        
Jun 19 19:48 SW 4   Clear   93 33     12%   88 29.89        
Jun 19 19:42 SW 2   Clear   93 33     12%   88 29.89        
Jun 19 19:39 WSW 4   Clear   93 33     12%   88 29.89        
Jun 19 19:33 WSW 4   Clear   93 31     11%   88 29.89        
Jun 19 19:27 WSW 2   Clear   94 31     11%   89 29.89        
Jun 19 19:22 WSW 4   Clear   94 31     11%   89 29.89        
Jun 19 19:19 SW 4   Clear   95 32     11%   90 29.89        
Jun 19 19:13 W 5   Clear   95 32     11%   90 29.89        
Jun 19 19:07 W 5   Clear   95 32     11%   90 29.89        
Jun 19 19:04 W 6   Clear   96 33     11%   91 29.89        
Jun 19 18:58 WNW 3   Clear   97 31     10%   91 29.89        
Jun 19 18:52 WNW 1   Clear   97 31     10%   91 29.89        
Jun 19 18:49 NW 3   Clear   97 31     10%   91 29.89        
Jun 19 18:43 WNW 8   Clear   97 31     10%   91 29.89        
Jun 19 18:37 WNW 3   Clear   98 30     9%   92 29.89        
Jun 19 18:34 WNW 5   Clear   98 30     9%   92 29.89        
Jun 19 18:28 WNW 4   Clear   97 29     9%   91 29.89        
Jun 19 18:22 WNW 4   Clear   97 29     9%   91 29.89        
Jun 19 18:17 W 3   Clear   96 28     9%   90 29.89        
Jun 19 18:14 WSW 4   Clear   96 28     9%   90 29.89        
Jun 19 18:08 WSW 3   Clear   97 29     9%   91 29.89        
Jun 19 18:05 WSW 3   Clear   97 29     9%   91 29.89        
Jun 19 17:59 W 4   Clear   97 29     9%   91 29.89        
Jun 19 17:53 Calm   Clear   97 31     10%   91 29.89        
Jun 19 17:50 SSW 3   Clear   97 31     10%   91 29.89        
Jun 19 17:44 WSW 6   Clear   97 31     10%   91 29.89        
Jun 19 17:38 SSW 4   Clear   98 32     10%   92 29.89        
Jun 19 17:35 WNW 3   Clear   98 32     10%   92 29.89        
Jun 19 17:29 WSW 3   Clear   97 31     10%   91 29.89        
Jun 19 17:23 WSW 4   Clear   98 32     10%   92 29.9        
Jun 19 17:17 WSW 8   Clear   98 32     10%   92 29.9        
Jun 19 17:12 WNW 4   Clear   98 32     10%   92 29.9        
Jun 19 17:09 W 1   Clear   98 32     10%   92 29.9        
Jun 19 17:03 W 5   Clear   100 31     9%   94 29.9        
Jun 19 16:57 WNW 8   Clear   100 31     9%   94 29.9        
Jun 19 16:54 WNW 10   Clear   100 31     9%   94 29.9        
Jun 19 16:48 Calm   Clear   100 31     9%   94 29.91        
Jun 19 16:42 WNW 1   Clear   101 32     9%   95 29.91        
Jun 19 16:39 Calm   Clear   100 31     9%   94 29.91        
Jun 19 16:33 Calm   Clear   100 31     9%   94 29.91        
Jun 19 16:27 Calm   Clear   102 32     9%   96 29.92        
Jun 19 16:24 NW 5   Clear   102 32     9%   96 29.92        
Jun 19 16:18 N 3   Clear   101 32     9%   95 29.92        
Jun 19 16:12 NW 5   Clear   101 32     9%   95 29.92        
Jun 19 16:09 WNW 7   Clear   101 34     10%   95 29.92        
Jun 19 16:03 WNW 6   Clear   100 34     10%   94 29.92        
Jun 19 15:57 ESE 2   Clear   100 31     9%   94 29.93        
Jun 19 15:54 SSW 1   Clear   100 31     9%   94 29.93        
Jun 19 15:48 NE 2   Clear   100 31     9%   94 29.93        
Jun 19 15:42 ESE 1   Clear   100 31     9%   94 29.93        
Jun 19 15:39 Calm   Clear   101 32     9%   95 29.93        
Jun 19 15:33 NE 1   Clear   100 31     9%   94 29.94        
Jun 19 15:27 NW 2   Clear   99 30     9%   93 29.94        
Jun 19 15:24 WNW 4   Clear   99 30     9%   93 29.94        
Jun 19 15:15 NE 3   Clear   99 30     9%   93 29.94        
Jun 19 15:12 NW 2   Clear   100 34     10%   94 29.94        
Jun 19 15:09 NNW 3   Clear   100 34     10%   94 29.94        
Jun 19 15:03 Calm   Clear   100 34     10%   94 29.94        
Jun 19 14:57 NNE 4   Clear   100 34     10%   94 29.95        
Jun 19 14:54 NNE 3   Clear   100 34     10%   94 29.95        
Jun 19 14:48 ENE 2   Clear   100 34     10%   94          
Jun 19 14:42 NW 2   Clear   100 34     10%   94 29.92        
Jun 19 14:39 NNW 3   Clear   99 33     10%   93 29.92        
Jun 19 14:33 ENE 1   Clear   98 35     11%   93 29.93        
Jun 19 14:27 ENE 3   Clear   97 34     11%   92 29.93        
Jun 19 14:24 NE 1   Clear   97 34     11%   92 29.93        
Jun 19 14:16 E 4   Clear   97 34     11%   92 29.93        
Jun 19 14:13 E 6   Clear   96 33     11%   91 29.93        
Jun 19 14:07 ESE 3   Clear   96 33     11%   91 29.93        
Jun 19 14:04 ESE 3   Clear   96 33     11%   91 29.93        
Jun 19 13:58 SE 7   Clear   96 33     11%   91 29.93        
Jun 19 13:55 ESE 6   Clear   96 33     11%   91 29.93        
Jun 19 13:49 Calm   Clear   97 31     10%   91 29.93        
Jun 19 13:43 ESE 1   Clear   97 31     10%   91 29.94        
Jun 19 13:37 Calm   Clear   97 36     12%   92 29.94        
Jun 19 13:34 ESE 4   Clear   96 35     12%   91 29.94        
Jun 19 13:28 ESE 5   Clear   96 37     13%   91 29.94        
Jun 19 13:22 E 7   Clear   95 38     14%   91 29.94        
Jun 19 13:19 S 3   Clear   95 38     14%   91 29.94        
Jun 19 13:13 Calm   Clear   94 39     15%   90 29.95        
Jun 19 13:10 Calm   Clear   93 38     15%   89 29.95        
Jun 19 13:04 S 1   Clear   94 39     15%   90 29.95        
Jun 19 12:59 SE 4   Clear   94 41     16%   90 29.95        
Jun 19 12:53 E 5   Clear   94 39     15%   90 29.95        
Jun 19 12:49 E 4   Clear   93 40     16%   89 29.95        
Jun 19 12:44 Calm   Clear   93 42     17%   89 29.96        
Jun 19 12:38 WNW 2   Clear   94 41     16%   90 29.96        
Jun 19 12:35 NNW 4   Clear   94 43     17%   90 29.96        
Jun 19 12:29 Calm   Clear   94 43     17%   90 29.96        
Jun 19 12:23 NNE 2   Clear   94 43     17%   90 29.96        
Jun 19 12:20 NNW 2   Clear   94 43     17%   90 29.96        
Jun 19 12:14 NNE 2   Clear   92 42     18%   88 29.97        
Jun 19 12:08 ESE 2   Clear   92 42     18%   88 29.97        
Jun 19 12:05 ESE 3   Clear   92 42     18%   88 29.97        
Jun 19 11:59 E 3   Clear   91 42     18%   87 29.97        
Jun 19 11:53 ENE 2   Clear   90 42     19%   86 29.97        
Jun 19 11:50 Calm   Clear   90 42     19%   86 29.98        
Jun 19 11:43 Calm   Clear   89 43     20%   85 29.98        
Jun 19 11:37 WNW 1   Clear   88 42     20%   85 29.98        
Jun 19 11:34 ENE 2   Clear   88 43     21%   85 29.98        
Jun 19 11:28 NE 3   Clear   86 43     22%   83 29.98        
Jun 19 11:22 Calm   Clear   85 44     24%   82 29.98        
Jun 19 11:19 W 3   Clear   86 44     23%   83 29.99        
Jun 19 11:13 Calm   Clear   86 44     23%   83 29.99        
Jun 19 11:07 Calm   Clear   86 45     24%   83 29.99        
Jun 19 11:04 Calm   Clear   86 44     23%   83 29.99        
Jun 19 10:58 Calm   Clear   85 45     25%   82 29.99        
Jun 19 10:52 WNW 2   Clear   83 45     26%   81 29.99        
Jun 19 10:49 WNW 3   Clear   82 44     26%   80 29.99        
Jun 19 10:43 WSW 3   Clear   81 45     28%   80 29.99        
Jun 19 10:37 SW 3   Clear   81 44     27%   80 29.99        
Jun 19 10:34 W 1   Clear   82 45     27%   80 29.99        
Jun 19 10:27 WNW 2   Clear   81 45     28%   80 29.99        
Jun 19 10:21 W 2   Clear   80 46     30%   79 30        
Jun 19 10:19 WSW 1   Clear   79 45     30%   78 30        
Jun 19 10:04 WSW 1   Clear   79 45     30%   78 30        
Jun 19 09:58 WSW 1   Clear   78 45     31%   77 30        
Jun 19 09:52 WNW 3   Clear   78 46     32%   77 30        
Jun 19 09:49 W 1   Clear   78 46     32%   77 29.99        
Jun 19 09:43 WNW 2   Clear   77 46     33%   76 30        
Jun 19 09:37 WSW 1   Clear   77 46     33%   76 30        
Jun 19 09:34 W 2   Clear   77 46     33%   76 30        
Jun 19 09:28 W 2   Clear   76 46     35%   75 30        
Jun 19 09:22 SW 3   Clear   75 45     35%   74 30        
Jun 19 09:19 WSW 1   Clear   75 45     35%   74 30        
Jun 19 09:12 WNW 1   Clear   75 45     35%   74 30        
Jun 19 09:09 Calm   Clear   74 45     35%   73 30        
Jun 19 09:01 W 3   Clear   74 45     36%   73 30.01        
Jun 19 08:57 WNW 4   Clear   74 45     36%   73 30.01        
Jun 19 08:55 WNW 2   Clear   74 45     36%   73 30.01        
Jun 19 08:49 W 3   Clear   74 45     36%   73 30.01        
Jun 19 08:42 WNW 3   Clear   73 45     37%   72 30.01        
Jun 19 08:39 WNW 4   Clear   73 45     37%   72 30.01        
Jun 19 08:34 WNW 6   Clear   72 45     38%   71 30.01        
Jun 19 08:24 W 4   Clear   72 45     38%   71 30.01        
Jun 19 08:15 WNW 3   Clear   71 45     39%   70 30.01        
Jun 19 08:12 WNW 2   Clear   71 45     39%   70 30.01        
Jun 19 08:06 Calm   Clear   71 45     39%   70 30        
Jun 19 08:03 Calm   Clear   71 44     38%   70 30.01        
Jun 19 07:57 Calm   Clear   71 44     38%   70 30.01        
Jun 19 07:54 Calm   Clear   71 44     38%   70 30        
Jun 19 07:48 Calm   Clear   71 44     38%   70 30        
Jun 19 07:42 Calm   Clear   70 44     39%     30        
Jun 19 07:39 Calm   Clear   69 44     40%     30        
Jun 19 07:33 Calm   Clear   68 43     41%     30        
Jun 19 07:27 Calm   Clear   67 43     42%     30        
Jun 19 07:24 Calm   Clear   66 43     43%     30        
Jun 19 07:18 Calm   Clear   65 43     45%     29.99        
Jun 19 07:12 E 1   Clear   64 43     46%     30        
Jun 19 07:09 Calm   Clear   63 42     47%     29.99        
Jun 19 07:00 Calm   Clear   62 42     48%     29.99        
Jun 19 06:57 Calm   Clear   61 41     48%     29.99        
Jun 19 06:54 Calm   Clear   61 42     49%     30        
Jun 19 06:48 Calm   Clear   60 41     50%     29.99        
Jun 19 06:42 Calm   Clear   60 41     50%     29.99        
Jun 19 06:39 Calm   Clear   59 40     50%     29.99        
Jun 19 06:33 Calm   Clear   58 40     52%     29.99        
Jun 19 06:27 Calm   Clear   58 40     52%     29.99        
Jun 19 06:24 Calm   Clear   57 40     53%     29.99        
Jun 19 06:18 Calm   Clear   57 41     54%     29.99        
Jun 19 06:12 E 1   Clear   56 40     55%     29.99        
Jun 19 06:08 Calm   Clear   56 40     55%     29.98        
Jun 19 06:05 E 1   Clear   56 40     55%     29.98        
Jun 19 05:59 Calm   Clear   56 40     55%     29.98        
Jun 19 05:53 Calm   Clear   56 40     55%     29.98        
Jun 19 05:50 Calm   Clear   56 40     55%     29.98        
Jun 19 05:44 E 2   Clear   56 40     54%     29.98        
Jun 19 05:38 Calm   Clear   56 39     53%     29.98        
Jun 19 05:35 E 1   Clear   56 39     53%     29.98        
Jun 19 05:29 Calm   Clear   57 40     53%     29.98        
Jun 19 05:23 ESE 1   Clear   57 40     52%     29.98        
Jun 19 05:17 Calm   Clear   58 40     52%     29.97        
Jun 19 05:14 ESE 1   Clear   58 40     51%     29.97        
Jun 19 05:05 Calm   Clear   59 40     50%     29.97        
Jun 19 04:59 Calm   Clear   60 41     50%     29.96        
Jun 19 04:53 Calm   Clear   61 42     49%     29.97        
Jun 19 04:50 Calm   Clear   61 42     49%     29.96        
Jun 19 04:44 Calm   Clear   62 42     48%     29.96        
Jun 19 04:38 Calm   Clear   62 43     49%     29.96        
Jun 19 04:35 Calm   Clear   62 42     48%     29.96        
Jun 19 04:29 W 2   Clear   62 42     48%     29.96        
Jun 19 04:23 W 2   Clear   62 42     48%     29.96        
Jun 19 04:20 W 3   Clear   63 43     48%     29.96        
Jun 19 04:14 W 3   Clear   62 42     48%     29.96        
Jun 19 04:08 W 3   Clear   62 42     47%     29.95        
Jun 19 04:05 W 2   Clear   62 42     47%     29.95        
Jun 19 03:59 W 1   Clear   63 42     47%     29.95        
Jun 19 03:53 WSW 1   Clear   63 42     47%     29.95        
Jun 19 03:50 W 2   Clear   63 42     46%     29.95        
Jun 19 03:44 W 3   Clear   63 41     45%     29.95        
Jun 19 03:32 W 1   Clear   64 42     44%     29.96        
Jun 19 03:29 WSW 3   Clear   64 42     45%     29.95        
Jun 19 03:23 WSW 2   Clear   64 42     45%     29.95        
Jun 19 03:17 WSW 3   Clear   63 42     46%     29.96        
Jun 19 03:14 WSW 1   Clear   63 42     46%     29.96        
Jun 19 03:08 WSW 1   Clear   63 42     46%     29.96        
Jun 19 03:02 SW 1   Clear   63 41     45%     29.96        
Jun 19 02:59 SW 1   Clear   63 41     45%     29.96        
Jun 19 02:53 SSW 2   Clear   63 41     45%     29.96        
Jun 19 02:47 E 1   Clear   64 42     44%     29.96        
Jun 19 02:44 E 2   Clear   64 41     43%     29.96        
Jun 19 02:38 Calm   Clear   65 41     42%     29.96        
Jun 19 02:32 Calm   Clear   65 41     42%     29.96        
Jun 19 02:26 SW 6   Clear   65 41     42%     29.96        
Jun 19 02:23 SW 5   Clear   65 42     43%     29.96        
Jun 19 02:17 SW 5   Clear   65 42     43%     29.96        
Jun 19 02:14 SW 6   Clear   65 42     43%     29.96        
Jun 19 02:08 SW 7   Clear   65 42     43%     29.96        
Jun 19 02:02 WSW 6   Clear   65 42     43%     29.96        
Jun 19 01:59 WSW 4   Clear   65 42     43%     29.96        
Jun 19 01:53 WSW 2   Clear   65 42     43%     29.96        
Jun 19 01:47 WSW 3   Clear   66 43     43%     29.95        
Jun 19 01:44 WSW 6   Clear   66 43     43%     29.95        
Jun 19 01:38 WSW 8   Clear   66 43     43%     29.95        
Jun 19 01:32 WSW 8   Clear   66 43     43%     29.95        
Jun 19 01:29 WSW 6   Clear   66 43     43%     29.95        
Jun 19 01:23 SW 6   Clear   66 43     43%     29.95        
Jun 19 01:18 WSW 8   Clear   66 43     43%     29.95        
Jun 19 01:12 WSW 9   Clear   66 43     43%     29.95        
Jun 19 01:06 SW 10   Clear   66 43     43%     29.95        
Jun 19 01:03 SW 10   Clear   66 43     43%     29.95        
Jun 19 01:00 WSW 5   Clear   66 43     43%     29.96        
Jun 19 00:54 WSW 7   Clear   66 43     43%     29.96        
Jun 19 00:48 SW 9   Clear   67 44     43%     29.96        
Jun 19 00:45 WSW 8   Clear   67 44     43%     29.96        
Jun 19 00:39 WSW 8   Clear   67 44     43%     29.96        
Jun 19 00:33 SW 9   Clear   67 44     43%     29.96        
Jun 19 00:30 SW 7   Clear   67 44     43%     29.96        
Jun 19 00:24 WSW 8   Clear   67 44     43%     29.96        
Jun 19 00:18 SW 8   Clear   67 44     43%     29.96        
Jun 19 00:15 SW 10   Clear   67 44     43%     29.96        
Jun 19 00:07 SW 10   Clear   67 43     42%     29.96        
Jun 19 00:04 SW 12   Clear   67 43     42%     29.96        
Jun 18 23:58 SW 11   Clear   67 43     42%     29.96        
Jun 18 23:52 WSW 8   Clear   67 43     42%     29.96        
Jun 18 23:49 SW 11   Clear   67 43     42%     29.96        
Jun 18 23:43 SW 10   Clear   67 43     42%     29.96        
Jun 18 23:37 SW 11   Clear   67 43     42%     29.96        
Jun 18 23:34 SW 11   Clear   67 43     42%     29.96        
Jun 18 23:28 SW 13   Clear   68 43     41%     29.96        
Jun 18 23:22 WSW 10   Clear   68 43     41%     29.96        
Jun 18 23:19 SW 11   Clear   68 43     41%     29.96        
Jun 18 23:10 WSW 9   Clear   68 43     41%     29.96        
Jun 18 23:07 WSW 10   Clear   68 43     41%     29.96        
Jun 18 23:04 WSW 12   Clear   68 43     41%     29.96        
Jun 18 22:58 WSW 10   Clear   68 43     40%     29.96        
Jun 18 22:52 WSW 10   Clear   69 44     40%     29.96        
Jun 18 22:49 WSW 10   Clear   69 44     40%     29.96        
Jun 18 22:43 WSW 9   Clear   69 44     40%     29.96        
Jun 18 22:37 SW 10   Clear   69 43     39%     29.96        
Jun 18 22:31 SW 10   Clear   69 43     39%     29.96        
Jun 18 22:28 SW 11   Clear   69 42     38%     29.96        
Jun 18 22:22 SW 11   Clear   70 43     37%     29.96        
Jun 18 22:16 SW 7   Clear   70 43     37%     29.96        
Jun 18 22:07 WSW 7   Clear   70 45     40%     29.93        
Jun 18 22:04 WSW 8   Clear   71 45     39%   70 29.93        
Jun 18 21:58 WSW 9   Clear   71 44     38%   70 29.94        
Jun 18 21:52 WSW 11   Clear   71 44     38%   70 29.93        
Jun 18 21:49 WSW 8   Clear   71 44     38%   70 29.93        
Jun 18 21:43 WSW 8   Clear   71 43     37%   70 29.93        
Jun 18 21:40 WSW 7   Clear   72 44     36%   71 29.93        
Jun 18 21:34 WSW 7   Clear   72 43     35%   71 29.93        
Jun 18 21:28 WSW 8   Clear   72 43     35%   71 29.93        
Jun 18 21:25 SW 10   Clear   72 42     34%   70 29.93        
Jun 18 21:16 WSW 7   Clear   73 43     34%   72 29.92        
Jun 18 21:13 WSW 7   Clear   73 44     35%   72 29.92        
Jun 18 21:10 SW 8   Clear   73 44     35%   72 29.92        
Jun 18 21:04 WSW 7   Clear   73 43     34%   72 29.92        
Jun 18 20:58 WSW 9   Clear   74 44     34%   73 29.92        
Jun 18 20:55 WSW 9   Clear   74 43     33%   73 29.92        
Jun 18 20:49 WSW 7   Clear   74 43     33%   73 29.91        
Jun 18 20:43 WSW 9   Clear   75 43     32%   74 29.91        
Jun 18 20:40 WSW 9   Clear   75 43     32%   74 29.91        
Jun 18 20:34 WSW 9   Clear   75 42     31%   74 29.91        
Jun 18 20:28 WSW 8   Clear   76 43     31%   75 29.91        
Jun 18 20:25 WSW 9   Clear   76 43     31%   75 29.91        
Jun 18 20:15 W 7   Clear   77 42     29%   76 29.91        
Jun 18 20:12 W 10   Clear   77 42     29%   76 29.91        
Jun 18 20:09 W 7   Clear   77 42     29%   76 29.91        
Jun 18 20:04 W 9   Clear   78 42     28%   77 29.9        
Jun 18 19:57 W 11   Clear   79 42     27%   78 29.9        
Jun 18 19:55 W 8   Clear   79 42     27%   78 29.9        
Jun 18 19:48 W 9   Clear   80 41     25%   79 29.89        
Jun 18 19:42 W 11   Clear   81 41     24%   80 29.9        
Jun 18 19:39 W 15   Clear   81 40     23%   80 29.89        
Jun 18 19:34 W 15   Clear   81 39     22%   80 29.89        
Jun 18 19:27 W 15   Clear   82 39     22%   80 29.89        
Jun 18 19:24 W 16   Clear   82 38     21%   80 29.89        
Jun 18 19:17 W 13   Clear   82 38     21%   80 29.89        
Jun 18 19:14 W 12   Clear   83 38     20%   81 29.89        
Jun 18 19:09 W 10   Clear   83 38     20%   81 29.89        
Jun 18 19:02 W 12   Clear   83 39     21%   81 29.89        
Jun 18 18:59 W 15   Clear   84 40     21%   81 29.89        
Jun 18 18:50 W 12   Clear   84 40     21%   81 29.88        
Jun 18 18:47 W 12   Clear   85 41     21%   82 29.88        
Jun 18 18:44 W 13   Clear   85 39     20%   82 29.88        
Jun 18 18:38 W 8   Clear   85 39     20%   82 29.88        
Jun 18 18:29 W 13   Clear   86 40     20%   83 29.88        
Jun 18 18:23 WSW 12   Clear   86 39     19%   83 29.88        
Jun 18 18:17 W 12   Clear   87 41     20%   84 29.88        
Jun 18 18:14 WSW 13   Clear   87 40     19%   84 29.87        
Jun 18 18:09 W 11   Clear   88 41     19%   84 29.87        
Jun 18 18:03 W 8   Clear   88 41     19%   84 29.87        
Jun 18 17:57 WSW 9   Clear   88 39     18%   84 29.87        
Jun 18 17:54 W 10   Clear   88 39     18%   84 29.87        
Jun 18 17:39 W 10   Clear   89 38     17%   85 29.88        
Jun 18 17:32 W 8   Clear   89 35     15%   85 29.88        
Jun 18 17:29 W 5   Clear   89 35     15%   85 29.88        
Jun 18 17:23 WNW 7   Clear   88 35     15%   84 29.88        
Jun 18 17:18 SW 7   Clear   88 35     15%   84 29.88        
Jun 18 17:15 SW 11   Clear   89 35     15%   85 29.89        
Jun 18 17:09 W 4   Clear   89 34     14%   85 29.88        
Jun 18 17:03 W 6   Clear   88 35     15%   84 29.89        
Jun 18 17:00 WSW 6   Clear   88 33     14%   84 29.89        
Jun 18 16:54 WSW 5   Clear   89 34     14%   85 29.89        
Jun 18 16:42 W 6   Clear   89 34     14%   85 29.9        
Jun 18 16:39 W 8   Clear   89 35     15%   85 29.9        
Jun 18 16:33 W 9   Clear   89 34     14%   85 29.9        
Jun 18 16:27 WNW 6   Clear   88 33     14%   84 29.9        
Jun 18 16:24 W 7   Clear   88 35     15%   84 29.9        
Jun 18 16:18 WSW 8   Clear   88 35     15%   84 29.9        
Jun 18 16:12 Calm   Clear   87 34     15%   83 29.9        
Jun 18 16:09 SW 10   Clear   88 33     14%   84 29.91        
Jun 18 16:00 SW 6   Clear   88 35     15%   84 29.91        
Jun 18 15:57 SW 3   Clear   88 33     14%   84 29.91        
Jun 18 15:54 WSW 8   Clear   89 34     14%   85 29.91        
Jun 18 15:48 NNW 3   Clear   89 34     14%   85 29.91        
Jun 18 15:42 W 5   Clear   88 33     14%   84 29.92        
Jun 18 15:39 W 10   Clear   89 34     14%   85 29.92        
Jun 18 15:32 Calm   Clear   88 33     14%   84 29.92        
Jun 18 15:29 SW 1   Clear   87 32     14%   83 29.92        
Jun 18 15:23 WNW 8   Clear   88 33     14%   84 29.92        
Jun 18 15:20 W 5   Clear   87 32     14%   83 29.92        
Jun 18 15:14 WNW 5   Clear   86 31     14%   83 29.92        
Jun 18 15:08 WSW 7   Clear   87 34     15%   83 29.93        
Jun 18 15:05 WSW 5   Clear   87 34     15%   83 29.93        
Jun 18 14:59 SW 4   Clear   87 34     15%   83 29.93        
Jun 18 14:53 WNW 4   Clear   88 35     15%   84 29.93        
Jun 18 14:50 W 9   Clear   88 35     15%   84 29.93        
Jun 18 14:44 WNW 4   Clear   87 35     16%   83 29.93        
Jun 18 14:38 WNW 2   Clear   87 35     16%   83 29.93        
Jun 18 14:32 WSW 7   Clear   87 34     15%   83 29.94        
Jun 18 14:26 W 6   Clear   87 35     16%   83 29.93        
Jun 18 14:23 SSW 3   Clear   87 35     16%   83 29.93        
Jun 18 14:17 Calm   Clear   86 33     15%   83 29.94        
Jun 18 14:14 Calm   Clear   86 33     15%   83 29.94        
Jun 18 14:08 WSW 1   Clear   85 34     16%   82 29.94        
Jun 18 14:02 SSW 1   Clear   85 35     17%   82 29.94        
Jun 18 13:59 SW 1   Clear   85 34     16%   82 29.94        
Jun 18 13:53 SW 2   Clear   85 34     16%   82 29.94        
Jun 18 13:47 W 2   Clear   85 34     16%   82 29.94        
Jun 18 13:44 WSW 5   Clear   86 35     16%   83 29.94        
Jun 18 13:38 NW 2   Clear   86 36     17%   83 29.94        
Jun 18 13:32 WSW 2   Clear   87 37     17%   84 29.95        
Jun 18 13:23 NNE 5   Clear   86 36     17%   83 29.95        
Jun 18 13:17 NNW 4   Clear   86 38     18%   83 29.95        
Jun 18 13:14 WNW 3   Clear   85 37     18%   82 29.95        
Jun 18 13:08 W 4   Clear   86 38     18%   83 29.96        
Jun 18 13:02 WNW 3   Clear   86 39     19%   83 29.96        
Jun 18 12:59 Calm   Clear   85 38     19%   82 29.93        
Jun 18 12:53 Calm   Clear   83 38     20%   81 29.93        
Jun 18 12:47 NNW 1   Clear   83 38     20%   81 29.94        
Jun 18 12:44 WNW 2   Clear   82 38     21%   80 29.94        
Jun 18 12:38 W 3   Clear   82 37     20%   80 29.94        
Jun 18 12:32 SE 1   Clear   83 38     20%   81 29.94        
Jun 18 12:29 Calm   Clear   83 38     20%   81 29.94        
Jun 18 12:20 SSE 1   Clear   83 38     20%   81 29.95        
Jun 18 12:17 S 1   Clear   83 38     20%   81 29.95        
Jun 18 12:13 SSE 2   Clear   82 38     21%   80 29.95        
Jun 18 12:09 Calm   Clear   82 39     22%   80 29.95        
Jun 18 12:05 Calm   Clear   81 40     23%   80 29.95        
Jun 18 11:59 NNW 2   Clear   80 40     24%   79 29.96        
Jun 18 11:53 Calm   Clear   79 39     24%   78 29.96        
Jun 18 11:47 SW 1   Clear   79 40     25%   78 29.96        
Jun 18 11:44 SW 3   Clear   79 40     25%   78 29.96        
Jun 18 11:38 W 1   Clear   79 41     26%   78 29.96        
Jun 18 11:32 WNW 1   Clear   78 40     26%   77 29.96        
Jun 18 11:29 Calm   Clear   78 41     27%   77 29.96        
Jun 18 11:23 SW 1   Clear   78 40     26%   77 29.96        
Jun 18 11:17 SW 1   Clear   77 40     27%   76 29.96        
Jun 18 11:14 SW 2   Clear   78 41     27%   77 29.96        
Jun 18 11:08 Calm   Clear   77 41     28%   76 29.96        
Jun 18 11:02 WNW 3   Clear   76 41     29%   75 29.97        
Jun 18 10:59 SW 4   Clear   76 41     28%   75 29.96        
Jun 18 10:53 W 4   Clear   76 41     29%   75 29.97        
May 15 11:16 SW 4   Clear   76 46     34%   75 29.98        
May 15 10:43 NW 6   Clear   73 47     39%   72 29.98        
May 15 09:55 WSW 4   Clear   69 47     46%     29.98        
May 15 07:55 WSW 8   Clear   61 46     58%     29.98        
May 15 06:09 W 4   Clear   51 43     73%     29.94        
May 15 05:44 WNW 1   Clear   51 42     71%     29.94        
May 15 05:38 WNW 2   Clear   51 42     71%     29.94        
May 15 04:33 WNW 3   Clear   53 42     65%     29.93        
May 15 00:18 WSW 9   Clear   60 43     54%     29.93        
May 14 23:12 WSW 9   Clear   61 43     52%     29.92        
May 14 22:48 WSW 9   Clear   62 44     52%     29.91        
May 14 22:07 WSW 9   Clear   62 45     53%     29.92        
May 14 21:07 WSW 13   Clear   64 45     50%     29.9        
May 14 20:19 WSW 7   Clear   67 46     47%     29.88        
Notice The following observation data may not be complete
May 14 19:58 W 10   Clear     46      %     29.87        
May 14 18:52 WSW 13   Clear   73 43     34%   72 29.85        
May 14 18:13 WSW 11   Clear   77 43     30%   76 29.85        
May 14 16:33     Clear   83 40     22%   81 29.83        
May 14 15:27 W 13   Clear   84 39     20%   81 29.85        
May 14 12:48 E 5   Clear   80 42     26%   79 29.91        
May 14 10:47 Calm   Clear   72 44     37%   71 29.94        
May 14 08:13 WSW 6   Clear   61 44     54%     29.92        
May 14 06:12 W 5   Clear   54 44     68%     29.89        
May 14 04:03 WSW 11   Clear   55 45     68%     29.9        
May 14 01:52 SW 10   Clear   57 43     60%     29.9        
May 14 01:43 SW 9   Clear   57 43     60%     29.9        
May 13 23:17 SW 10   Clear   60 43     53%     29.9        
May 13 21:38 SW 9   Clear   62 44     51%     29.91        
Notice The following observation data may not be complete
May 13 19:59 WSW 13   Clear     44      %     29.88        
May 13 18:50 WSW 14   Clear   70 43     37%     29.86        
May 13 18:44 WSW 13   Clear   71 43     36%   69 29.87        
May 13 18:08 SW 10   Clear   74 42     32%   73 29.86        
May 13 17:47 WSW 11   Clear   74 41     31%   73 29.86        
Notice The following observation data may not be complete
May 13 15:03     Clear            %              
May 13 14:48 SW 10   Clear   74 40     29%   72 29.9        
May 13 13:54 SW 3   Clear   76 39     26%   75 29.92        
May 13 12:33 SW 4   Clear   73 39     29%   71 29.94        
May 13 12:15 W 4   Clear   73 40     30%   71 29.94        
May 13 12:00 WSW 3   Clear   72 41     32%   70 29.94        
May 13 11:45 SSW 6   Clear   72 41     33%   70 29.94        
May 13 09:53 SW 9   Clear   65 43     44%     29.95        
May 13 08:32 WSW 8   Clear   59 44     58%     29.95        
Notice The following observation data may not be complete
May 13 07:59     Clear            %              
May 13 06:17 WSW 10   Clear   51 43     74%     29.91        
May 13 05:47 WSW 10   Clear   51 43     75%     29.91        
May 13 01:38 WSW 7   Clear   52 44     73%     29.91        
May 13 00:51 WSW 9   Clear   53 44     71%     29.91        
May 12 23:39 SW 16   Clear   55 45     68%     29.91        
May 12 23:18 SW 13   Clear   55 45     68%     29.91        
May 12 23:03 SW 14   Clear   55 44     67%     29.9        
May 12 21:08 WSW 11   Clear   57 44     62%     29.88        
May 12 19:54 WSW 16   Clear   60 44     56%     29.85        
May 12 17:55 WSW 14   Clear   69 43     39%     29.82        
May 12 17:25 WSW 14   Clear   70 43     37%     29.83        
May 12 15:43 WSW 17   Clear   73 38     28%   71 29.82        
May 12 13:31 WSW 13   Clear   74 37     26%   72 29.85        
May 12 11:03 W 12   Clear   67 41     38%     29.88        
May 12 09:48 SW 10   Clear   63 41     44%     29.88        
May 12 06:18 WSW 9   Clear   51 44     77%     29.83        
May 12 06:03 W 8   Clear   51 44     76%     29.83        
May 12 05:39 W 6   Clear   51 43     75%     29.81        
May 12 02:58 WSW 12   Clear   54 44     69%     29.77        
May 12 02:44 WSW 12   Clear   54 44     68%     29.77        
May 12 02:06 WSW 11   Clear   54 44     68%     29.79        
May 11 22:29 WSW 11   Clear   56 45     67%     29.76        
May 11 22:14 WSW 10   Clear   56 45     67%     29.75        
May 11 22:02 SW 14   Clear   56 45     67%     29.75        
May 11 21:29 SW 13   Clear   57 46     66%     29.72        
Notice The following observation data may not be complete
May 11 19:29 SW 21   Clear and Windy     47      %     29.65        
May 11 19:09 SW 23   Clear and Windy   61 47     61%     29.65        
May 11 18:18 WSW 25   Clear and Windy   64 47     55%     29.63        
May 11 17:10 WSW 21   Clear and Windy   67 47     49%     29.65        
May 11 16:34 WSW 22   Clear and Windy   69 47     46%     29.64        
May 11 13:30 WSW 18   Clear   74 46     37%   73 29.66        
May 11 13:09 WSW 23   Clear and Windy   74 45     36%   73 29.67        
May 11 12:57 WSW 19   Clear   75 45     35%   74 29.67        
May 11 12:08 WSW 17   Clear   75 46     36%   74 29.69        
May 11 09:17 WSW 20   Clear and Windy   70 45     40%     29.71        
May 11 08:23 WSW 13   Clear   66 43     44%     29.72        
Jun 12 05:06 W 10   Clear   48 35     61% 44   29.95        
Jun 12 04:32 W 8   Clear   49 35     58% 46   29.94        
Jun 12 04:08 W 15   Clear   49 36     60% 43   29.93        
Jun 12 02:29 WNW 18   Clear   51 34     52%     29.94        
Jun 11 22:23 WSW 10   Clear   55 45     70%     29.91        
Jun 11 19:34 WNW 17   Clear   63 33     32%     29.84        
Jun 11 13:28 W 19   Clear   68 45     43%     29.81        
Jun 11 11:58 W 18   Clear   67 45     45%     29.8        
Jun 11 09:15 WSW 18   Clear   61 43     51%     29.8        
Jun 11 08:39 WSW 19   Clear   60 43     53%     29.78        
Jun 11 08:30 WSW 17   Clear   60 42     51%     29.78        
Jun 11 07:50 WSW 20   Clear and Windy   56 41     57%     29.78        
Jun 11 07:14 WSW 17   Clear   54 42     63%     29.78        
Jun 11 07:05 WSW 17   Clear   53 41     64%     29.78        
Jun 11 01:02 WSW 15   Clear   59 44     58%     29.76        
Jun 11 00:53 WSW 17   Clear   59 45     59%              
Jun 11 00:47 WSW 20   Clear and Windy   59 44     58%     29.75        
Jun 11 00:32 WSW 18   Clear   60 44     56%              
Jun 11 00:23 WSW 22   Clear and Windy   60 44     56%     29.74        
Jun 11 00:05 SW 12   Clear   60 45     58%              
Jun 10 23:38 WSW 20   Clear and Windy   60 46     59%              
Jun 10 23:23 WSW 19   Clear   61 47     59%              
Jun 10 23:20 WSW 17   Clear   61 47     59%     29.76        
Jun 10 22:17 WSW 15   Clear   61 48     63%     29.78        
Jun 10 21:32 WSW 18   Clear   62 49     62%              
Jun 10 20:38 WSW 18   Clear   63 49     60%     29.76        
Jun 10 19:38 WSW 18   Clear   67 48     50%              
Jun 10 19:32 WSW 16   Clear   67 48     50%     29.75        
Jun 10 18:03 WSW 23   Clear and Windy   70 49     48%     29.74        
Jun 10 17:54 WSW 21   Clear and Windy   71 50     48%   70          
Jun 10 14:16 WSW 16   Clear   75 47     37%   74 29.75        
Jun 10 13:13 W 14   Clear   75 45     34%   74 29.79        
Jun 10 11:43 W 20   Clear and Windy   73 47     39%   72 29.8        
Jun 10 09:34 W 16   Clear   69 48     47%     29.82        
Jun 10 07:33 WSW 9   Clear   61 50     67%     29.81        
Jun 10 00:22 SW 14   Clear   62 52     70%     29.83        
Jun 09 21:04 SW 12   Clear   69 54     58%     29.81        
Notice The following observation data may not be complete
Jun 09 19:40     Clear            %              
Jun 09 18:15 WSW 19   Clear   79 53     40%   78 29.78        
Jun 09 16:42 WSW 15   Clear   83 50     32%   81 29.78        
Jun 09 14:13 SW 19   Clear   84 50     31%   82 29.82        
Jun 09 13:16 WSW 14   Clear   84 49     30%   82 29.87        
Jun 09 13:04 WSW 15   Clear   84 48     29%   82 29.87        
Jun 09 07:27 WSW 8   Clear   65 43     45%     29.89        
Jun 09 07:24 WSW 10   Clear   65 43     45%     29.89        
Jun 09 03:42 SW 10   Clear   63 41     44%     29.88        
Jun 09 00:27 SW 10   Clear   69 33     26%     29.88        
Notice The following observation data may not be complete
Jun 08 23:40     Clear            %              
Jun 08 21:53 W 7   Clear   73 28     19%   71 29.9        
Jun 08 17:37 W 17   Clear   87 37     17%   84 29.88        
Jun 08 09:39 WSW 11   Clear   76 43     31%   75 29.95        
Jun 08 09:12 SW 10   Clear   75 44     33%   74 29.95        
Jun 08 08:27 WSW 9   Clear   70 45     40%     29.95        
Jun 08 08:18 WSW 9   Clear   69 45     42%     29.95        
Jun 08 05:53 SW 9   Clear   63 44     50%     29.93        
Jun 08 05:49 WSW 10   Clear   63 44     50%     29.93        
Jun 08 03:43 WSW 8   Clear   66 43     43%     29.91        
Jun 08 02:50 WSW 11   Clear   67 42     40%     29.91        
Jun 07 22:38 SW 16   Clear   71 40     33%   69 29.89        
Jun 07 20:15 W 8   Clear   79 30     17%   77 29.86        
Jun 07 19:03 WSW 16   Clear   85 25     11%   82 29.84        
Jun 07 18:48 WSW 17   Clear   86 27     12%   82          
Jun 07 11:34 SW 5   Clear   90 31     12%   86 29.91        
Jun 07 07:32 WSW 5   Clear   74 41     30%   73 29.91        
Jun 07 06:44 Calm   Clear   68 39     34%     29.87        
Jun 05 22:28 WSW 8   Clear   75 41     30%   74 29.89        
Jun 05 20:25 WSW 9   Clear   84 44     25%   82 29.86        
Jun 05 13:31 W 7   Clear   96 31     10%   90 29.86        
Jun 05 13:01 WNW 7   Clear   97 31     10%   91 29.87